Location: Central Falls
(41.8900°N, 71.3929°W)
Time: 11:55:03
(UTC+00:00)

A-11 Canister half - Pass Details

Date: 07 December 2023
Orbit: 1526 x 1682 km, 47.3° (Epoch: 20 February)

Event Time Altitude Azimuth Distance (km) Brightness Sun altitude
Rises 01:43:15 0° 269° (W) 4,932 12.3 -49.1°
Reaches altitude 10° 01:46:29 10° 273° (W) 3,943 11.6 -49.7°
Enters shadow 01:52:17 39° 288° (WNW) 2,351 10.1 -50.7°
Maximum altitude 01:56:36 65° 355° (N) 1,798 - -51.5°
Drops below altitude 10° 02:06:29 10° 77° (ENE) 3,869 - -53.2°
Sets 02:09:38 0° 80° (E) 4,835 - -53.8°
